Pecos, TX

9:46 PM CDT on April 30, 2017 (GMT -0500)
Pecos Municipal

Weather History for KPEQ - April, 2014

Change the Weather History Date:

Friday, April 11, 2014

  Actual Average Record
Temperature  
Mean Temperature 66 °F -  
Max Temperature 91 °F 83 °F 102 °F (1972)
Min Temperature 43 °F 45 °F 33 °F (1978)
Cooling Degree Days 2    
Growing Degree Days 16 (Base 50)    
Moisture  
Dew Point 14 °F    
Average Humidity 13    
Maximum Humidity 21    
Minimum Humidity 7    
Precipitation  
Precipitation 0.00 in - - ()
Sea Level Pressure  
Sea Level Pressure 29.94 in    
Wind  
Wind Speed 5 mph (West)    
Max Wind Speed 12 mph    
Max Gust Speed -    
Visibility 10 miles    
Events      
Averages and records for this station are not official NWS values.
T = Trace of Precipitation, MM = Missing Value Source: NWS Daily Summary

Daily Weather History Graph

Daily Weather History Graph

Search for Another Location

Airport or City:

Trip Planner

Search our weather history database for the weather conditions in past years. The results will help you decide how hot, cold, wet, or windy it might be!

Date:

Astronomy

Apr. 11, 2014 Rise Set
Actual Time 7:30 AM CDT 8:20 PM CDT
Civil Twilight 7:05 AM CDT 8:44 PM CDT
Nautical Twilight 6:36 AM CDT 9:14 PM CDT
Astronomical Twilight 6:06 AM CDT 9:44 PM CDT
Moon 5:14 PM CDT (4/11) 5:13 AM CDT (4/11)
Length of Visible Light 13h 39m
Length of Day
12h 49m
Waxing Gibbous, 87% of the Moon is Illuminated
Apr 11
Waxing Gibbous
Apr 15
Full
Apr 22
Last Quarter
Apr 29
New
May 6
First Quarter

Hourly Weather History & Observations

Time (CDT) Temp. Windchill Dew Point Humidity Pressure Visibility Wind Dir Wind Speed Gust Speed Precip Events Conditions
12:15 AM 52.7 °F - 8.1 °F 17% 29.94 in 10.0 mi South 3.5 mph - N/A   Clear
12:35 AM 50.7 °F - 5.9 °F 16% 29.94 in 10.0 mi SSW 4.6 mph - N/A   Clear
12:55 AM 50.0 °F - 5.9 °F 17% 29.95 in 10.0 mi SSW 6.9 mph - N/A   Clear
1:15 AM 49.3 °F - 5.0 °F 16% 29.94 in 10.0 mi SSW 3.5 mph - N/A   Clear
1:35 AM 48.0 °F - 4.1 °F 17% 29.95 in 10.0 mi SSE 3.5 mph - N/A   Clear
1:55 AM 48.4 °F - 4.5 °F 17% 29.95 in 10.0 mi Calm Calm - N/A   Clear
2:15 AM 46.4 °F 45.2 °F 3.6 °F 17% 29.94 in 10.0 mi SSE 3.5 mph - N/A   Clear
2:35 AM 46.0 °F 43.1 °F 3.6 °F 17% 29.95 in 10.0 mi South 5.8 mph - N/A   Clear
2:55 AM 45.9 °F 43.6 °F 3.2 °F 17% 29.95 in 10.0 mi South 4.6 mph - N/A   Clear
3:15 AM 46.4 °F 44.3 °F 4.8 °F 18% 29.95 in 10.0 mi SW 4.6 mph - N/A   Clear
3:35 AM 45.3 °F - 3.4 °F 18% 29.95 in 10.0 mi Calm Calm - N/A   Clear
3:55 AM 46.6 °F - 4.1 °F 18% 29.95 in 10.0 mi Calm Calm - N/A   Clear
4:15 AM 46.4 °F - 3.9 °F 17% 29.94 in 10.0 mi Calm Calm - N/A   Clear
4:35 AM 44.2 °F 41.0 °F 4.8 °F 20% 29.93 in 10.0 mi WSW 5.8 mph - N/A   Clear
4:55 AM 43.7 °F 39.1 °F 5.5 °F 21% 29.94 in 10.0 mi NNW 8.1 mph - N/A   Clear
5:15 AM 47.3 °F - 5.5 °F 18% 29.93 in 10.0 mi SSW 3.5 mph - N/A   Clear
5:35 AM 46.8 °F - 5.2 °F 18% 29.93 in 10.0 mi SW 6.9 mph - N/A   Clear
5:55 AM 44.1 °F 41.5 °F 5.2 °F 20% 29.93 in 10.0 mi South 4.6 mph - N/A   Clear
6:15 AM 43.9 °F 42.3 °F 5.7 °F 21% 29.95 in 10.0 mi SW 3.5 mph - N/A   Clear
6:35 AM 45.5 °F 43.2 °F 7.3 °F 21% 29.94 in 5.0 mi SSW 4.6 mph - N/A   Haze
6:55 AM 44.6 °F 41.4 °F 6.3 °F 21% 29.94 in 10.0 mi South 5.8 mph - N/A   Clear
7:15 AM 45.0 °F 40.1 °F 5.5 °F 20% 29.94 in 10.0 mi SSW 9.2 mph - N/A   Clear
7:55 AM 55.0 °F - 7.3 °F 15% 29.97 in 10.0 mi NNW 10.4 mph - N/A   Clear
8:15 AM 62.2 °F - 7.9 °F 12% 29.97 in 10.0 mi NNW 11.5 mph - N/A   Clear
8:35 AM 61.3 °F - 9.0 °F 13% 29.98 in 10.0 mi West 5.8 mph - N/A   Clear
8:55 AM 63.9 °F - 12.7 °F 14% 29.99 in 10.0 mi Calm Calm - N/A   Clear
9:15 AM 59.4 °F - 11.3 °F 15% 30.00 in 10.0 mi Calm Calm - N/A   Clear
9:35 AM 61.2 °F - 11.8 °F 14% 30.00 in 10.0 mi NE 6.9 mph - N/A   Clear
9:55 AM 62.6 °F - 11.7 °F 14% 30.01 in 10.0 mi NE 9.2 mph - N/A   Clear
10:15 AM 65.5 °F - 12.6 °F 13% 30.02 in 10.0 mi NNE 5.8 mph - N/A   Clear
10:35 AM 67.6 °F - 13.6 °F 12% 30.02 in 10.0 mi NW 4.6 mph - N/A   Clear
10:55 AM 71.1 °F - 14.5 °F 11% 30.02 in 10.0 mi NW 6.9 mph - N/A   Clear
11:15 AM 76.1 °F - 16.3 °F 10% 30.02 in 10.0 mi NW 10.4 mph - N/A   Clear
11:35 AM 78.4 °F - 16.2 °F 10% 30.02 in 10.0 mi NNW 6.9 mph - N/A   Clear
11:55 AM 79.7 °F - 16.5 °F 9% 30.02 in 10.0 mi WNW 8.1 mph - N/A   Clear
12:15 PM 81.3 °F - 17.1 °F 9% 30.02 in 10.0 mi NW 8.1 mph - N/A   Clear
12:35 PM 83.1 °F - 17.1 °F 9% 30.01 in 10.0 mi WNW 6.9 mph - N/A   Clear
12:55 PM 83.5 °F - 17.4 °F 9% 30.00 in 10.0 mi WNW 5.8 mph - N/A   Clear
1:15 PM 85.5 °F - 17.2 °F 8% 29.99 in 10.0 mi NNW 9.2 mph - N/A   Clear
1:35 PM 86.2 °F - 18.1 °F 8% 29.98 in 10.0 mi WNW 9.2 mph - N/A   Clear
1:55 PM 86.4 °F - 17.6 °F 8% 29.98 in 10.0 mi NW 9.2 mph - N/A   Clear
2:15 PM 87.4 °F - 18.3 °F 8% 29.98 in 10.0 mi West 6.9 mph - N/A   Clear
2:55 PM 87.4 °F - 18.3 °F 8% 29.95 in 10.0 mi West 5.8 mph - N/A   Clear
3:15 PM 88.0 °F - 18.7 °F 8% 29.94 in 10.0 mi North 4.6 mph - N/A   Clear
3:35 PM 88.2 °F - 18.5 °F 8% 29.93 in 10.0 mi Calm Calm - N/A   Clear
3:55 PM 89.4 °F - 19.2 °F 8% 29.91 in 10.0 mi North 5.8 mph - N/A   Clear
4:15 PM 88.9 °F - 18.5 °F 8% 29.90 in 10.0 mi NNE 3.5 mph - N/A   Clear
4:35 PM 88.3 °F - 18.9 °F 8% 29.90 in 10.0 mi Calm Calm - N/A   Clear
4:55 PM 88.2 °F - 18.3 °F 8% 29.89 in 10.0 mi NE 4.6 mph - N/A   Clear
5:15 PM 88.3 °F - 18.7 °F 8% 29.89 in 10.0 mi NNE 3.5 mph - N/A   Clear
5:35 PM 90.7 °F - 19.8 °F 8% 29.88 in 10.0 mi ENE 5.8 mph - N/A   Clear
5:55 PM 90.7 °F - 19.2 °F 7% 29.88 in 10.0 mi North 5.8 mph - N/A   Clear
6:15 PM 89.4 °F - 19.0 °F 8% 29.86 in 10.0 mi NE 6.9 mph - N/A   Clear
6:35 PM 89.8 °F - 19.0 °F 8% 29.87 in 10.0 mi East 8.1 mph - N/A   Clear
6:55 PM 88.9 °F - 18.9 °F 8% 29.87 in 10.0 mi East 9.2 mph - N/A   Clear
7:15 PM 87.1 °F - 18.5 °F 8% 29.88 in 10.0 mi ENE 5.8 mph - N/A   Clear
7:35 PM 85.5 °F - 19.2 °F 9% 29.88 in 10.0 mi ENE 5.8 mph - N/A   Clear
7:55 PM 84.2 °F - 19.0 °F 9% 29.88 in 10.0 mi East 5.8 mph - N/A   Clear
8:15 PM 82.2 °F - 17.8 °F 9% 29.88 in 10.0 mi Calm Calm - N/A   Clear
8:35 PM 81.1 °F - 16.9 °F 9% 29.88 in 10.0 mi SW 5.8 mph - N/A   Clear
8:55 PM 81.9 °F - 17.1 °F 9% 29.88 in 10.0 mi SW 5.8 mph - N/A   Clear
9:15 PM 79.0 °F - 21.7 °F 12% 29.89 in 10.0 mi SW 8.1 mph - N/A   Clear
9:35 PM 79.5 °F - 22.6 °F 12% 29.89 in 10.0 mi West 11.5 mph - N/A   Clear
9:55 PM 80.2 °F - 23.5 °F 12% 29.90 in 10.0 mi SW 8.1 mph - N/A   Clear
10:15 PM 79.5 °F - 23.7 °F 13% 29.91 in 10.0 mi SW 6.9 mph - N/A   Clear
10:35 PM 75.7 °F - 23.0 °F 14% 29.91 in 10.0 mi South 5.8 mph - N/A   Clear
10:55 PM 74.3 °F - 23.0 °F 15% 29.91 in 10.0 mi SSW 5.8 mph - N/A   Clear
11:15 PM 72.0 °F - 22.6 °F 16% 29.91 in 10.0 mi SW 5.8 mph - N/A   Clear
11:35 PM 71.1 °F - 23.4 °F 17% 29.90 in 10.0 mi SW 5.8 mph - N/A   Clear
11:55 PM 70.5 °F - 23.0 °F 17% 29.91 in 10.0 mi SW 9.2 mph - N/A   Clear